Location: Montr�al
(45.5000°N, 73.5830°W)
Time: 18:20:49
(UTC-04:00)

ISS - All Passes

Search period start: 05 May 2015 00:00
Search period end: 15 May 2015 00:00
Orbit: 394 x 401 km, 51.6° (Epoch: 05 May)

Date Brightness Start Highest point End Pass type
(mag) Time Alt. Az. Time Alt. Az. Time Alt. Az.
05 May - 07:38:41 10° SSE 07:40:02 12° SE 07:41:30 10° ESE daylight
05 May - 09:12:42 10° WSW 09:15:56 81° SSE 09:19:12 10° ENE daylight
05 May - 10:49:34 10° WNW 10:52:32 31° N 10:55:30 10° NE daylight
05 May - 12:26:33 10° NW 12:29:27 29° N 12:32:23 10° ENE daylight
05 May - 14:02:51 10° WNW 14:06:08 82° NNE 14:09:24 10° ESE daylight
05 May - 15:40:01 10° W 15:42:08 16° SW 15:44:10 10° S daylight
06 May - 08:18:34 10° SW 08:21:40 44° SE 08:24:48 10° ENE daylight
06 May - 09:54:58 10° W 09:58:03 39° NNW 10:01:09 10° NE daylight
06 May - 11:32:06 10° WNW 11:34:56 26° N 11:37:47 10° ENE daylight
06 May - 13:08:33 10° NW 13:11:45 51° NNE 13:14:57 10° E daylight
06 May - 14:45:06 10° WNW 14:47:59 28° SW 14:50:49 10° SSE daylight
07 May - 07:24:47 10° SSW 07:27:27 24° SE 07:30:10 10° E daylight
07 May - 09:00:24 10° WSW 09:03:37 57° NNW 09:06:50 10° ENE daylight
07 May - 10:37:33 10° WNW 10:40:23 27° N 10:43:14 10° ENE daylight
07 May - 12:14:13 10° NW 12:17:17 36° NNE 12:20:21 10° E daylight
07 May - 13:50:32 10° WNW 13:53:44 52° SW 13:56:54 10° SE daylight
08 May - 06:31:41 10° SSE 06:33:17 13° SE 06:34:59 10° ESE daylight
08 May - 08:05:59 10° WSW 08:09:13 86° SSE 08:12:29 10° ENE daylight
08 May - 09:42:54 10° WNW 09:45:50 30° N 09:48:46 10° NE daylight
08 May - 11:19:50 10° NW 11:22:45 29° N 11:25:41 10° ENE daylight
08 May - 12:56:08 10° WNW 12:59:23 87° NNE 13:02:39 10° ESE daylight
08 May - 14:33:25 10° W 14:35:21 15° SW 14:37:13 10° S daylight
09 May - 07:11:45 10° SW 07:14:53 47° SE 07:18:01 10° ENE daylight
09 May - 08:48:13 10° W 08:51:17 38° NNW 08:54:22 10° NE daylight
09 May - 10:25:20 10° WNW 10:28:10 26° N 10:31:00 10° ENE daylight
09 May - 12:01:45 10° NW 12:04:58 54° NNE 12:08:10 10° ESE daylight
09 May - 13:38:21 10° W 13:41:09 26° SW 13:43:55 10° SSE daylight
10 May - 06:17:51 10° SSW 06:20:35 26° SE 06:23:22 10° E daylight
10 May - 07:53:34 10° WSW 07:56:46 54° NNW 07:59:58 10° NE daylight
10 May - 09:30:43 10° WNW 09:33:33 26° N 09:36:23 10° ENE daylight
10 May - 11:07:21 10° NW 11:10:26 37° NNE 11:13:31 10° E daylight
10 May - 12:43:41 10° WNW 12:46:51 48° SW 12:50:00 10° SE daylight
11 May - 05:24:33 10° SSE 05:26:20 14° SE 05:28:13 10° E daylight
11 May - 06:59:03 10° WSW 07:02:17 88° NW 07:05:33 10° ENE daylight
11 May - 08:36:01 10° WNW 08:38:55 29° N 08:41:51 10° NE daylight
11 May - 10:12:55 10° NW 10:15:50 30° N 10:18:47 10° ENE daylight
11 May - 11:49:11 10° WNW 11:52:28 87° SSW 11:55:43 10° ESE daylight
11 May - 13:26:38 10° WSW 13:28:23 14° SW 13:30:03 10° SSW daylight
12 May - 06:04:44 10° SW 06:07:52 51° SE 06:11:03 10° ENE daylight
12 May - 07:41:16 10° W 07:44:18 36° NNW 07:47:22 10° NE daylight
12 May - 09:18:22 10° WNW 09:21:12 27° N 09:24:02 10° ENE daylight
12 May - 10:54:45 10° WNW 10:57:58 57° NNE 11:01:10 10° ESE daylight
12 May - 12:31:23 10° W 12:34:07 24° SW 12:36:49 10° SSE daylight
13 May - 05:10:43 10° SSW 05:13:31 28° SE 05:16:21 10° E daylight
13 May - 06:46:33 10° W 06:49:43 51° NNW 06:52:54 10° NE daylight
13 May - 08:23:42 10° WNW 08:26:31 26° N 08:29:20 10° ENE daylight
13 May - 10:00:18 10° NW 10:03:23 39° NNE 10:06:28 10° E daylight
13 May - 11:36:38 10° WNW 11:39:46 45° SW 11:42:53 10° SE daylight
14 May - 04:17:15 10° S 04:19:12 15° SE 04:21:13 10° E visible
14 May - 05:51:56 10° WSW 05:55:11 83° NNW 05:58:26 10° ENE daylight
14 May - 07:28:56 10° WNW 07:31:49 29° N 07:34:43 10° NE daylight
14 May - 09:05:47 10° NW 09:08:44 30° N 09:11:41 10° ENE daylight
14 May - 10:42:04 10° WNW 10:45:19 82° SSW 10:48:34 10° ESE daylight
14 May - 12:19:41 10° WSW 12:21:13 13° SW 12:22:40 10° SSW daylight
